Volver al catálogo

STARLINK-32681

ActivoComunicacionesVLEO
NORAD 62506·PAYLOAD·🇺🇸 United States

Lanzado Jan 6, 2025 desde Cape Canaveral Space Force Station

Loading…

Próximos Pases (próximas 24 horas)

TLE

ActualizadoSource: CelesTrak SupGP

Época: Sep 14, 2026, 21:23 UTC

1 62506C 25003V   26257.89145833  .00009003  00000+0  32604-3 0  2578
2 62506  43.0018 281.9102 0001913 273.1134 207.6031 15.27577675    17

Sigue STARLINK-32681 en tiempo real con AllMySat

Download on the App Store